Current Version              Previous Version:    01  02  03  04  05  06  07  08  09  10  11  12  13  14  15  16  17  18  19  20  21  22  23  24  25  26  27  28  29  30  
   31  32  33  34  35  36  37  38  39  40  41  42  43  44  45  46  47  48  49  50  51  52  53  54  55  56  57  58  59  60  

[Printable]
561
ASUS44 KEWX 021210
RWRTX
SOUTH TEXAS REGIONAL WEATHER ROUNDUP
NATIONAL WEATHER SERVICE AUSTIN/SAN ANTONIO TX
700 AM CDT TUE SEP 02 2014

NOTE: "FAIR" INDICATED FEW OR NO CLOUDS BELOW 12,000 FEET WITH NO
SIGNIFICANT WEATHER AND/OR OBSTRUCTIONS TO VISIBILITY.

* - THESE STATIONS ARE NOT NWS OR FAA STATIONS...AND ARE NOT SUBJECT
    TO NWS AND FAA QUALITY CONTROL.

TXZ171-172-183>190-021300-
TEXAS HILL COUNTRY AND EDWARDS PLATEAU

CITY           SKY/WX    TMP DP  RH WIND       PRES   REMARKS
JUNCTION       CLEAR     74  69  85 SE3       29.96R
6HR MIN TEMP:  74; 6HR MAX TEMP:  82;

*LLANO         MOCLDY    77  72  83 CALM      29.98R
BURNET         CLEAR     75  71  87 S6        29.98R
6HR MIN TEMP:  75; 6HR MAX TEMP:  81;

*HORSESHOE BAY CLEAR     76  70  82 CALM      29.95R
6HR MIN TEMP:  76; 6HR MAX TEMP:  82;

*KERRVILLE     CLOUDY    76  73  88 SE9       29.98R
6HR MIN TEMP:  76; 6HR MAX TEMP:  79;

*FREDERICKSBRG PTCLDY    74  69  85 S7        29.97S
6HR MIN TEMP:  74; 6HR MAX TEMP:  79;

*ROCKSPRINGS   MOCLDY    73  70  88 SE13G20   30.01R
*BOERNE STAGE  PTCLDY    73  70  88 S5        29.97S
*CASTROVILLE   PTCLDY    78  73  83 SE5       29.96S
HONDO          MOCLDY    79  74  84 SE6       29.96R
6HR MIN TEMP:  79; 6HR MAX TEMP:  82;

*UVALDE        PTCLDY    78  74  87 SE6       29.94S
6HR MIN TEMP:  78; 6HR MAX TEMP:  83;

DEL RIO        MOCLDY    80  72  76 E9        29.91R
6HR MIN TEMP:  80; 6HR MAX TEMP:  88;

LAUGHLIN AFB   CLOUDY    79  72  79 SE12      29.93R
6HR MIN TEMP:  79; 6HR MAX TEMP:  87;

CARRIZO SPRGS  CLEAR     77  72  83 E3        29.90S
$$

TXZ173-191>194-202-209-217>225-228-021300-
CENTRAL AND SOUTH CENTRAL TEXAS

CITY           SKY/WX    TMP DP  RH WIND       PRES   REMARKS
GEORGETOWN     MOCLDY    79  73  83 S10       29.96R
AUSTIN/BERGSTM PTCLDY    75  74  96 S5        29.94R
6HR MIN TEMP:  74; 6HR MAX TEMP:  80;

AUSTIN/MABRY   PTCLDY    78  75  90 VRB3      29.95R
6HR MIN TEMP:  78; 6HR MAX TEMP:  81;

*AUSTIN/EXEC   CLOUDY    75  75 100 S5        29.95R
*LAGO VISTA    CLOUDY    77  73  87 S6        29.97R
6HR MIN TEMP:  77; 6HR MAX TEMP:  80;

SAN MARCOS     CLEAR     75  70  83 SE5       29.96S
NEW BRAUNFELS  PTCLDY    76  73  91 SE3       29.93S
6HR MIN TEMP:  76; 6HR MAX TEMP:  80;

RANDOLPH AFB   PTCLDY    76  74  94 SE5       29.95S
6HR MIN TEMP:  76; 6HR MAX TEMP:  80;

PT SAN ANTONIO PTCLDY    79  75  89 SE6       29.93R
6HR MIN TEMP:  78; 6HR MAX TEMP:  81;

SAN ANTONIO    MOCLDY    80  75  84 SE10      29.95R
6HR MIN TEMP:  79; 6HR MAX TEMP:  81;

STINSON FIELD  CLOUDY    79  75  87 SE3       29.93R
6HR MIN TEMP:  79; 6HR MAX TEMP:  81;

*PLEASANTON    CLOUDY    78  75  91 CALM      29.93S
6HR MIN TEMP:  77; 6HR MAX TEMP:  81;

*LA GRANGE     MOCLDY    76  76  99 CALM      29.93R FOG
6HR MIN TEMP:  76; 6HR MAX TEMP:  80;

*GIDDINGS      CLOUDY    76  75  95 CALM      29.99R
6HR MIN TEMP:  76; 6HR MAX TEMP:  79;

*GONZALES      PTCLDY    78  77  98 E3        29.93S
6HR MIN TEMP:  78; 6HR MAX TEMP:  80;

$$

TXZ163>164-176>182-195>201-210>213-226-227-235-021300-
SOUTHEAST TEXAS

CITY           SKY/WX    TMP DP  RH WIND       PRES   REMARKS
COLLEGE STN    CLOUDY    77  76  96 S7        29.95R
6HR MIN TEMP:  77; 6HR MAX TEMP:  80;

*BRYAN         CLOUDY   N/A N/A N/A SE6       29.95R
*CALDWELL      CLOUDY    75  75 100 SE5       29.98R
*CROCKETT      CLOUDY    81  81 100 S5        29.99R FOG     HX  91
*BRENHAM       FOG       78  76  96 CALM      29.95S VSB 1/2
6HR MIN TEMP:  76; 6HR MAX TEMP:  80;

HUNTSVILLE     CLEAR     78  76  93 S5        29.96R
6HR MIN TEMP:  78; 6HR MAX TEMP:  80;

CONROE         MOCLDY    75  74  96 CALM      29.97R
6HR MIN TEMP:  74; 6HR MAX TEMP:  77;

HOUSTON BUSH   PTCLDY    79  75  89 S3        29.95R
HOUSTON HOBBY  PTCLDY    80  76  87 CALM      29.95R
6HR MIN TEMP:  79; 6HR MAX TEMP:  81;

*HOUSTON SW AP PTCLDY   N/A N/A N/A CALM      29.96R
PEARLAND       CLEAR     80  76  87 CALM      29.97R
6HR MIN TEMP:  79; 6HR MAX TEMP:  82;

HOUSTON HOOKS  CLEAR     78  76  93 SE3       29.95R
6HR MIN TEMP:  77; 6HR MAX TEMP:  80;

ELLINGTON FLD  PTCLDY    81  79  94 E3        29.97R
SUGAR LAND     CLEAR     79  76  90 SE6       29.95R
6HR MIN TEMP:  79; 6HR MAX TEMP:  81;

*HOUSTON EXEC  CLEAR     77  77 100 SE5       29.96R
*CLEVELAND MUN   N/A     74  73  99 CALM      29.97R FOG
6HR MIN TEMP:  74; 6HR MAX TEMP:  77;

*WHARTON       CLEAR     76  74  96 E5        29.95R
6HR MIN TEMP:  76; 6HR MAX TEMP:  78;

$$

TXZ214>216-236>238-021300-
THE UPPER TEXAS COAST

CITY           SKY/WX    TMP DP  RH WIND       PRES   REMARKS
*ORANGE        CLEAR     80  80 100 SE3       29.99S
6HR MIN TEMP:  79; 6HR MAX TEMP:  82; 6HR PCP:  0.04;

PORT ARTHUR    CLEAR     80  76  87 SE7       29.97R
6HR MIN TEMP:  79; 6HR MAX TEMP:  81;

GALVESTON      MOCLDY    84  77  79 S10       29.96R HX  94
6HR MIN TEMP:  83; 6HR MAX TEMP:  84;

ANGLETON       PTCLDY    77  76  96 CALM      29.94R
6HR MIN TEMP:  76; 6HR MAX TEMP:  82; 6HR PCP:  0.01;

*BAY CITY      CLEAR     79  79 100 E3        29.94R
PALACIOS       CLEAR     82  76  81 SE7       29.92R
6HR MIN TEMP:  82; 6HR MAX TEMP:  84;

$$

TXZ229>234-239>247-021300-
TEXAS COASTAL BEND AND RIO GRANDE PLAINS

CITY           SKY/WX    TMP DP  RH WIND       PRES   REMARKS
VICTORIA       CLEAR     79  77  94 CALM      29.93R
6HR MIN TEMP:  78; 6HR MAX TEMP:  82;

*BEEVILLE      CLEAR     77  77 100 CALM      29.91S
6HR MIN TEMP:  77; 6HR MAX TEMP:  80;

ROCKPORT       PTCLDY    83  76  79 SE8       29.90R HX  91
6HR MIN TEMP:  83; 6HR MAX TEMP:  84;

*PORT ARANSAS  MOCLDY    83  76  80 SE9       29.90R HX  92
6HR MIN TEMP:  83; 6HR MAX TEMP:  84;

*PORT LAVACA   CLEAR     79  76  91 SE5       29.92R
6HR MIN TEMP:  78; 6HR MAX TEMP:  80;

*INGLESIDE     CLEAR     82  76  81 SE6       29.90R HX  90
CORPUS CHRISTI PTCLDY    79  76  90 SE5       29.89R
6HR MIN TEMP:  79; 6HR MAX TEMP:  82;

CORPUS NAS     PTCLDY    83  78  85 SE10      29.89R HX  93
6HR MIN TEMP:  83; 6HR MAX TEMP:  84;

*ROBSTOWN      CLEAR     79  76  91 E5        29.90R
6HR MIN TEMP:  79; 6HR MAX TEMP:  82;

ALICE          CLEAR     76  74  93 NE5       29.90R
6HR MIN TEMP:  76; 6HR MAX TEMP:  81; 6HR PCP: TRACE;

KINGSVILLE NAS MOCLDY    78  77  96 NE3       29.89R
6HR MIN TEMP:  78; 6HR MAX TEMP:  80;

COTULLA        MOCLDY    79  74  84 E7        29.91R
6HR MIN TEMP:  79; 6HR MAX TEMP:  83;

*FAITH RANCH   CLEAR     77  72  83 SE7       29.91R
LAREDO         PTCLDY    80  75  84 E8        29.91F
6HR MIN TEMP:  80; 6HR MAX TEMP:  84;

$$

TXZ248>255-021300-
DEEP SOUTH TEXAS

CITY           SKY/WX    TMP DP  RH WIND       PRES   REMARKS
BROWNSVILLE    CLEAR     80  78  94 E3        29.86R
6HR MIN TEMP:  80; 6HR MAX TEMP:  82;

PORT ISABEL    CLEAR     84  76  76 E9        29.86  HX  93
6HR MIN TEMP:  84; 6HR MAX TEMP:  85;

*SOUTH PADRE   PTCLDY    82  77  83 E14       29.86R HX  91
HARLINGEN      CLEAR     77  76  96 CALM      29.87R
6HR MIN TEMP:  77; 6HR MAX TEMP:  81;

*HEBBRONVILLE  PTCLDY    78  75  90 SE7       29.92R
MCALLEN        CLEAR     80  77  90 E5        29.88
6HR MIN TEMP:  79; 6HR MAX TEMP:  82;

*WESLACO       NOT AVBL